Hourly Weather Roundup
Issued by NWS Central Illinois

Home | Current Version | Previous Version | Graphics & Text | Print | Product List | Glossary On
Versions: 1 2 3 4 5 6 7 8 9 10 11 12 13 14 15 16 17 18 19 20 21 22 23 24 25 26 27 28 29 30 31 32 33 34 35 36 37 38 39 40 41 42 43 44 45 46 47 48 49 50
000
NZUS43 KILX 290310
HWRILX

AREA WEATHER ROUNDUP
NATIONAL WEATHER SERVICE, LINCOLN IL
1000 PM CDT THU AUG 28 2014


CITY           SKY/WX    TMP DP  RH WIND       PRES   REMARKS
BLOOMINGTON    TSTM      68  66  94 E6        30.07F FOG
CHAMPAIGN      CLOUDY    73  70  90 E6        30.04S
DECATUR        LGT RAIN  73  70  90 NW15G23   30.08R
FLORA          MOCLDY    74  72  92 CALM      30.03S
GALESBURG      MOCLDY    69  68  95 E6        29.99S
JACKSONVILLE   CLOUDY    73  71  92 E7        30.01F
LACON          CLOUDY    69  67  93 CALM      30.00F
LAWRENCEVILLE  MOCLDY    75  71  87 CALM      30.03S
LITCHFIELD     LGT RAIN  73  70  92 NE5       30.02R
$$


CITY           SKY/WX    TMP DP  RH WIND       PRES   REMARKS
LINCOLN        CLOUDY    71  69  94 E12       30.00F
MACOMB         MOCLDY    69  69  98 E6        30.00S
MATTOON        MOCLDY    74  69  85 CALM      30.03R
MT CARMEL AP   CLOUDY    77  72  83 CALM      30.03S
OLNEY-NOBLE AP CLOUDY    73  72  94 CALM      30.03S
PARIS          MOCLDY    70  69  96 CALM      30.05S
PEORIA         CLOUDY    73  69  87 SE7       30.01S
PONTIAC        RAIN      72  70  94 E5        30.05F
RANTOUL        CLOUDY    76  67  74 E5        30.06R
ROBINSON       MOCLDY    76  74  95 S5        30.04R
SPRINGFIELD    LGT RAIN  72  71  97 E10       30.02F
TAYLORVILLE    CLOUDY    70  68  94 N9G16     30.05F
$$

...REGIONAL REPORTS...


CITY           SKY/WX    TMP DP  RH WIND       PRES   REMARKS
CHICAGO O`HARE LGT RAIN  71  62  73 E8        30.04F
KANKAKEE       CLOUDY    72  67  85 NE6       30.06S
MOLINE         MOCLDY    70  67  90 SE10      29.97S
MOUNT VERNON   CLOUDY    73  68  83 E6        30.03R
PITTSFIELD     MOCLDY    75  68  79 E6        30.00R
QUINCY         PTCLDY    72  69  90 E14       29.97R
ROCKFORD       CLOUDY    65  61  87 E3        30.03F
$$


CITY           SKY/WX    TMP DP  RH WIND       PRES   REMARKS
BURLINGTON     MOCLDY    71  70  96 E9        29.97R
CEDAR RAPIDS   CLOUDY    69  69 100 SE5       29.96R
DES MOINES     CLOUDY    74  71  91 SE9       29.89F THUNDER
KIRKSVILLE     CLEAR     74  71  91 E7        29.94R
OTTUMWA        PTCLDY    70  69  97 SE9       29.93R
ST LOUIS       MOCLDY    79  70  74 SE10      29.98S HX  82
$$


CITY           SKY/WX    TMP DP  RH WIND       PRES   REMARKS
TERRE HAUTE    PTCLDY    73  69  87 CALM      30.04R
EVANSVILLE     CLOUDY    75  71  87 NE3       30.02F
INDIANAPOLIS   PTCLDY    75  65  70 E7        30.05S
LAFAYETTE      MOCLDY    71  65  81 E8        30.05R
MADISON        CLOUDY    65  55  70 SE12      30.02F
MILWAUKEE      CLOUDY    66  59  78 E10       30.06F
$$





USA.gov is the U.S. government's official web portal to all federal, state and local government web resources and services.